Precipitable_Water
0.26 0.22 0.20 0.21 0.20 0.18 0.18 0.15 0.13 0.16 0.19 0.15 0.14 0.14 0.15 0.18 0.18 0.17 0.18 0.19 0.22 0.26 0.33 0.38 0.41 0.45 0.48 0.52 0.53 0.55 0.58 0.62 0.65 0.64 0.62 0.61 0.61 0.66 0.69 0.71 0.72 0.71 0.70 0.68
0.22 0.18 0.22 0.22 0.19 0.16 0.15 0.13 0.14 0.15 0.18 0.15 0.15 0.13 0.16 0.17 0.17 0.19 0.21 0.22 0.24 0.29 0.34 0.39 0.42 0.46 0.51 0.54 0.57 0.61 0.63 0.65 0.66 0.66 0.65 0.64 0.61 0.61 0.60 0.62 0.64 0.66 0.71 0.75
0.19 0.21 0.23 0.21 0.19 0.16 0.17 0.17 0.15 0.15 0.17 0.19 0.16 0.12 0.14 0.17 0.19 0.21 0.25 0.27 0.29 0.32 0.34 0.39 0.42 0.47 0.55 0.58 0.60 0.60 0.59 0.58 0.56 0.56 0.55 0.53 0.54 0.54 0.53 0.58 0.64 0.74 0.78 0.77
0.21 0.25 0.22 0.19 0.17 0.20 0.14 0.21 0.19 0.17 0.16 0.14 0.18 0.11 0.16 0.18 0.18 0.21 0.25 0.29 0.31 0.34 0.38 0.42 0.45 0.50 0.57 0.59 0.60 0.55 0.51 0.49 0.47 0.47 0.48 0.59 0.65 0.63 0.67 0.67 0.73 0.70 0.69 0.70
0.24 0.23 0.22 0.20 0.20 0.23 0.19 0.24 0.21 0.21 0.18 0.16 0.17 0.14 0.15 0.20 0.17 0.21 0.26 0.31 0.36 0.39 0.41 0.44 0.48 0.55 0.62 0.59 0.54 0.49 0.45 0.40 0.42 0.62 0.76 0.73 0.68 0.71 0.71 0.68 0.64 0.66 0.68 0.73
0.31 0.37 0.32 0.28 0.29 0.28 0.28 0.24 0.23 0.23 0.21 0.14 0.19 0.18 0.19 0.22 0.25 0.28 0.30 0.30 0.34 0.38 0.40 0.44 0.53 0.60 0.57 0.55 0.50 0.44 0.36 0.39 0.64 0.76 0.76 0.73 0.67 0.61 0.61 0.62 0.62 0.64 0.67 0.69
0.30 0.32 0.37 0.38 0.32 0.35 0.32 0.27 0.21 0.21 0.20 0.20 0.28 0.23 0.23 0.29 0.27 0.28 0.29 0.31 0.35 0.38 0.41 0.48 0.50 0.51 0.50 0.46 0.43 0.38 0.36 0.50 0.76 0.75 0.71 0.67 0.65 0.66 0.65 0.64 0.61 0.59 0.61 0.65
0.26 0.24 0.34 0.40 0.37 0.34 0.33 0.31 0.27 0.20 0.20 0.22 0.27 0.17 0.21 0.24 0.26 0.28 0.29 0.31 0.35 0.39 0.47 0.48 0.51 0.50 0.45 0.44 0.40 0.35 0.35 0.66 0.74 0.67 0.66 0.69 0.69 0.67 0.67 0.66 0.65 0.65 0.66 0.68
0.26 0.27 0.39 0.42 0.42 0.40 0.33 0.28 0.32 0.23 0.23 0.18 0.17 0.21 0.20 0.23 0.22 0.24 0.27 0.31 0.34 0.44 0.47 0.50 0.52 0.47 0.45 0.44 0.40 0.31 0.38 0.72 0.74 0.71 0.70 0.69 0.68 0.67 0.68 0.72 0.75 0.73 0.70 0.70
0.29 0.25 0.34 0.35 0.37 0.36 0.31 0.33 0.21 0.21 0.13 0.13 0.16 0.17 0.14 0.18 0.21 0.25 0.25 0.30 0.36 0.39 0.45 0.51 0.53 0.47 0.45 0.44 0.35 0.31 0.41 0.69 0.74 0.73 0.73 0.71 0.71 0.75 0.75 0.75 0.74 0.74 0.76 0.78
0.26 0.23 0.25 0.29 0.24 0.23 0.23 0.20 0.21 0.21 0.18 0.13 0.11 0.13 0.24 0.20 0.24 0.27 0.30 0.34 0.37 0.41 0.45 0.52 0.51 0.46 0.44 0.41 0.32 0.30 0.32 0.56 0.61 0.67 0.69 0.71 0.72 0.72 0.71 0.70 0.71 0.72 0.75 0.77
0.25 0.22 0.17 0.20 0.28 0.30 0.27 0.23 0.22 0.16 0.17 0.17 0.17 0.12 0.24 0.26 0.29 0.33 0.32 0.36 0.41 0.46 0.48 0.52 0.43 0.43 0.41 0.38 0.31 0.28 0.27 0.47 0.57 0.60 0.63 0.65 0.67 0.67 0.65 0.64 0.65 0.69 0.70 0.73
0.26 0.21 0.16 0.18 0.25 0.29 0.24 0.26 0.26 0.25 0.24 0.17 0.15 0.15 0.25 0.27 0.29 0.35 0.36 0.38 0.45 0.47 0.48 0.48 0.41 0.41 0.40 0.37 0.30 0.27 0.27 0.33 0.53 0.56 0.56 0.56 0.56 0.56 0.57 0.60 0.63 0.65 0.66 0.68
0.34 0.26 0.22 0.18 0.21 0.24 0.21 0.24 0.27 0.26 0.21 0.19 0.19 0.19 0.24 0.29 0.31 0.35 0.39 0.44 0.47 0.48 0.48 0.46 0.39 0.41 0.39 0.36 0.31 0.27 0.26 0.29 0.42 0.49 0.52 0.51 0.50 0.47 0.49 0.55 0.59 0.61 0.62 0.62
0.35 0.25 0.26 0.26 0.26 0.26 0.24 0.23 0.26 0.24 0.23 0.21 0.21 0.23 0.24 0.29 0.32 0.35 0.39 0.42 0.43 0.44 0.47 0.37 0.38 0.37 0.35 0.34 0.34 0.29 0.26 0.28 0.31 0.39 0.44 0.46 0.46 0.45 0.48 0.52 0.54 0.56 0.57 0.57
0.34 0.22 0.25 0.19 0.22 0.24 0.22 0.23 0.25 0.26 0.28 0.28 0.28 0.25 0.33 0.35 0.38 0.38 0.40 0.42 0.43 0.44 0.34 0.37 0.36 0.33 0.30 0.33 0.33 0.31 0.26 0.25 0.26 0.28 0.33 0.38 0.39 0.41 0.43 0.47 0.49 0.50 0.50 0.51
0.29 0.25 0.23 0.16 0.22 0.21 0.16 0.18 0.19 0.21 0.25 0.25 0.23 0.23 0.32 0.31 0.34 0.37 0.40 0.43 0.43 0.37 0.36 0.36 0.34 0.31 0.32 0.33 0.34 0.30 0.25 0.25 0.24 0.24 0.27 0.31 0.33 0.34 0.38 0.41 0.43 0.44 0.45 0.47
0.26 0.24 0.23 0.17 0.18 0.11 0.17 0.19 0.19 0.18 0.19 0.22 0.22 0.24 0.27 0.29 0.32 0.36 0.38 0.39 0.39 0.35 0.35 0.32 0.30 0.29 0.32 0.34 0.34 0.31 0.26 0.23 0.23 0.22 0.23 0.25 0.27 0.29 0.33 0.36 0.37 0.40 0.42 0.42
0.28 0.24 0.18 0.14 0.12 0.13 0.12 0.15 0.14 0.12 0.10 0.15 0.15 0.17 0.19 0.21 0.25 0.28 0.31 0.34 0.34 0.31 0.32 0.30 0.30 0.28 0.27 0.30 0.32 0.28 0.24 0.23 0.22 0.21 0.21 0.23 0.24 0.26 0.28 0.29 0.32 0.35 0.36 0.37
0.27 0.27 0.20 0.17 0.11 0.07 0.12 0.17 0.21 0.20 0.09 0.13 0.15 0.16 0.17 0.20 0.12 0.17 0.28 0.32 0.30 0.31 0.32 0.30 0.27 0.27 0.28 0.28 0.29 0.26 0.24 0.23 0.22 0.23 0.23 0.24 0.25 0.25 0.25 0.27 0.29 0.31 0.33 0.32
0.18 0.20 0.16 0.17 0.15 0.14 0.19 0.21 0.22 0.11 0.11 0.16 0.17 0.16 0.18 0.18 0.21 0.25 0.30 0.32 0.33 0.32 0.31 0.31 0.29 0.27 0.27 0.28 0.29 0.25 0.24 0.22 0.24 0.26 0.27 0.27 0.26 0.26 0.27 0.27 0.29 0.29 0.30 0.30
0.14 0.15 0.15 0.18 0.14 0.11 0.21 0.19 0.13 0.16 0.18 0.20 0.19 0.19 0.20 0.22 0.23 0.24 0.26 0.28 0.28 0.28 0.29 0.29 0.27 0.25 0.26 0.26 0.25 0.23 0.22 0.27 0.30 0.30 0.30 0.29 0.28 0.29 0.29 0.28 0.29 0.29 0.28 0.27
0.18 0.21 0.20 0.19 0.16 0.23 0.24 0.21 0.25 0.25 0.23 0.22 0.22 0.23 0.23 0.22 0.21 0.21 0.21 0.22 0.22 0.24 0.24 0.25 0.24 0.24 0.25 0.25 0.25 0.23 0.23 0.28 0.30 0.32 0.32 0.32 0.33 0.32 0.32 0.30 0.29 0.29 0.30 0.29
0.35 0.36 0.32 0.27 0.29 0.32 0.29 0.28 0.29 0.30 0.27 0.26 0.26 0.25 0.25 0.23 0.23 0.22 0.23 0.23 0.23 0.22 0.21 0.24 0.23 0.22 0.20 0.22 0.23 0.25 0.27 0.28 0.29 0.29 0.30 0.32 0.34 0.35 0.35 0.34 0.34 0.32 0.30 0.30
0.36 0.36 0.32 0.35 0.40 0.42 0.42 0.36 0.31 0.34 0.37 0.33 0.31 0.29 0.28 0.27 0.25 0.26 0.25 0.24 0.24 0.24 0.24 0.24 0.22 0.21 0.21 0.23 0.23 0.25 0.26 0.28 0.27 0.28 0.30 0.31 0.34 0.36 0.37 0.37 0.36 0.35 0.35 0.35
0.34 0.32 0.30 0.29 0.37 0.37 0.39 0.44 0.48 0.47 0.47 0.47 0.43 0.35 0.34 0.34 0.30 0.30 0.28 0.29 0.28 0.26 0.26 0.25 0.25 0.25 0.25 0.25 0.24 0.25 0.28 0.29 0.29 0.28 0.30 0.32 0.34 0.36 0.38 0.38 0.37 0.41 0.40 0.41
Wind_Speed
16 18 17 16 16 14 16 17 17 14 14 16 20 22 22 22 24 25 25 25 25 25 24 25 25 26 27 29 30 31 32 33 33 34 35 35 35 35 36 36 37 39 40 42
17 16 16 16 15 14 15 16 14 15 15 17 19 24 25 25 26 27 27 27 27 26 26 26 27 28 29 30 31 31 32 33 33 34 34 34 34 34 35 36 36 37 39 41
16 15 16 15 14 14 12 14 14 15 17 18 21 24 25 24 24 26 27 28 27 27 27 27 28 29 29 30 30 31 31 32 33 33 33 34 34 35 34 34 34 36 38 38
13 15 15 15 14 14 15 14 15 15 16 18 18 22 23 23 24 25 27 27 28 28 28 29 29 29 29 29 29 29 29 30 31 32 33 33 33 33 32 32 30 30 30 31
16 14 14 13 14 15 15 15 15 16 17 20 21 22 24 23 26 28 28 28 28 27 27 27 27 27 26 26 26 27 28 29 30 31 31 30 29 26 23 22 22 23 24 27
13 17 15 15 13 13 15 16 16 17 18 21 20 22 24 25 25 23 23 23 24 23 24 24 24 23 24 23 24 25 27 28 28 28 27 24 19 17 15 16 17 19 21 24
12 12 15 17 17 18 18 19 19 20 20 22 20 23 27 24 21 19 17 18 19 21 22 21 21 21 21 21 22 23 25 26 25 22 18 14 11 11 12 13 15 17 19 22
12 12 12 13 15 16 15 16 16 17 16 17 16 19 16 15 16 18 19 19 19 20 20 20 20 20 20 20 20 21 21 21 18 12 10 8 8 9 10 12 14 16 19 22
12 12 12 11 12 12 12 14 13 15 15 17 17 18 22 21 21 19 18 18 18 18 19 19 19 18 17 16 16 17 16 14 10 9 7 6 6 8 9 12 14 16 19 21
8 8 11 10 12 12 13 11 11 12 13 15 15 16 16 17 18 19 20 18 16 15 16 17 16 15 14 13 12 12 11 9 7 5 4 5 6 7 9 12 14 17 19 21
7 7 7 9 12 12 11 12 13 13 14 15 16 15 14 18 19 17 16 16 16 15 15 14 14 13 11 10 10 8 7 6 5 4 4 5 6 8 10 13 15 17 19 21
5 6 8 10 9 11 15 15 16 14 13 16 17 20 16 15 16 17 18 17 16 15 14 13 12 12 11 10 9 7 6 5 4 4 4 6 7 9 11 13 15 18 19 20
6 7 8 9 10 12 14 16 17 16 14 16 14 12 10 9 10 12 14 14 14 14 14 13 13 13 11 10 9 7 6 5 4 5 6 7 9 10 12 14 16 18 19 19
3 4 6 6 5 6 8 10 13 13 10 11 15 17 18 16 15 13 13 14 15 15 17 15 14 13 12 11 10 8 7 6 6 6 7 8 10 11 13 15 16 17 18 18
3 4 7 10 11 12 14 15 14 16 19 14 14 16 19 17 16 17 17 17 18 18 16 15 14 14 14 12 11 10 9 8 8 8 9 10 11 12 14 15 17 17 16 17
3 4 6 8 11 11 15 16 18 19 20 22 22 23 19 17 13 9 10 12 14 15 16 15 15 15 15 14 12 11 11 10 10 11 11 12 13 14 15 16 16 16 17 17
4 4 5 6 4 10 13 12 14 14 16 17 19 20 18 18 18 19 17 17 17 17 16 15 15 15 14 14 14 13 12 12 12 13 13 14 15 16 17 17 17 18 18 18
5 6 6 8 10 6 5 8 9 10 15 17 19 19 20 20 19 19 19 19 18 16 14 12 12 13 14 14 15 14 14 14 14 15 16 16 17 18 18 18 19 19 19 18
8 7 7 6 9 14 5 4 5 5 5 6 11 12 13 13 14 16 12 12 13 14 14 13 12 13 14 15 15 16 16 16 17 18 18 19 19 19 20 20 21 20 20 20
7 9 8 5 7 6 4 4 4 5 6 6 7 10 13 12 12 10 11 12 13 14 14 14 14 15 16 16 17 18 19 19 19 20 21 21 21 22 23 23 22 22 21 21
6 8 12 12 11 12 11 6 7 8 6 8 11 14 15 14 15 15 15 16 16 16 16 17 18 18 19 19 20 21 21 22 23 23 23 23 24 25 25 25 24 24 24 24
9 9 10 10 12 12 7 8 11 12 15 16 20 20 19 19 19 19 18 18 17 17 18 19 20 21 21 22 22 23 25 26 26 26 26 27 27 27 26 26 26 25 25 25
14 14 13 14 14 16 17 21 19 21 23 25 24 21 21 22 21 20 19 18 18 19 20 21 22 23 23 24 25 27 28 29 29 29 29 30 30 29 29 28 28 28 27 28
16 19 18 18 17 23 24 25 27 26 24 25 25 26 27 27 26 26 26 25 24 24 24 24 25 25 27 28 30 31 32 32 31 32 32 32 32 31 31 30 30 30 30 30
17 17 22 25 27 26 23 18 21 24 26 29 31 31 30 29 29 29 28 28 28 28 27 27 28 29 31 32 33 33 33 34 34 34 34 33 33 33 33 33 32 32 33 32
23 25 24 25 26 26 27 27 28 30 32 31 31 32 32 33 32 32 31 30 30 30 29 30 31 32 32 33 33 33 33 33 33 33 33 33 33 33 33 34 34 34 35 35
Wind_Direction
194 190 192 198 207 214 209 215 217 225 234 242 243 250 252 250 251 257 261 263 266 268 271 272 276 280 282 284 286 288 289 290 291 291 291 291 291 290 289 287 287 286 285 283
191 193 201 204 206 207 212 213 222 229 239 248 255 260 259 256 256 259 264 266 267 269 270 273 278 281 283 286 287 289 290 291 292 292 292 292 291 290 290 289 289 289 289 288
191 196 204 203 205 209 221 228 231 244 251 251 264 262 258 257 263 263 265 267 268 269 272 276 281 284 285 287 289 290 291 292 293 294 294 293 292 291 291 291 292 293 294 293
193 204 206 207 214 232 225 237 241 250 254 256 263 264 262 264 262 264 266 266 267 269 272 277 282 284 285 287 289 290 292 294 295 296 296 295 295 293 292 293 295 298 299 300
210 204 209 216 228 234 232 238 246 254 257 264 255 265 267 266 269 268 268 267 267 269 273 278 283 283 285 287 290 292 294 296 298 298 298 298 298 296 296 299 303 307 309 311
201 216 223 222 228 233 231 245 253 257 260 261 262 266 270 271 274 272 272 266 266 268 274 280 282 283 285 288 291 295 297 300 300 300 299 299 299 300 305 311 316 319 323 325
212 226 227 234 238 242 249 253 261 259 259 266 267 269 271 272 270 270 268 265 266 271 275 279 281 284 287 289 293 297 301 303 304 302 300 301 302 307 314 322 329 334 335 337
215 223 231 239 242 247 248 250 255 261 263 272 263 264 272 275 270 269 269 267 272 275 275 276 281 285 288 290 294 300 306 308 308 305 303 307 312 320 327 333 333 336 338 341
222 228 230 237 239 243 243 248 255 263 263 267 264 269 274 267 266 265 264 268 273 276 277 278 281 284 286 289 296 303 310 314 311 308 310 314 323 334 335 334 337 339 341 343
213 219 231 234 239 241 247 243 251 254 266 267 264 269 271 278 275 270 257 263 268 275 280 279 278 282 282 285 296 307 314 324 326 323 321 331 332 337 340 343 343 344 345 344
206 220 215 227 230 229 235 244 248 263 262 271 278 271 274 276 273 267 258 258 263 271 284 281 277 276 273 277 291 302 315 327 337 337 331 334 338 340 342 344 345 345 345 346
216 234 230 237 240 248 251 253 248 260 259 266 276 277 285 282 273 267 262 259 261 267 283 279 273 270 264 270 281 284 301 310 318 327 331 330 335 338 341 344 346 347 347 347
231 241 250 244 247 250 254 251 254 260 270 263 271 268 282 292 283 270 263 259 256 267 279 273 271 263 258 261 267 272 282 290 296 309 323 328 334 335 336 337 339 342 343 347
208 237 239 253 263 263 252 249 243 240 255 267 252 274 272 282 282 273 267 262 264 274 280 271 265 254 252 256 259 262 267 276 287 298 309 319 325 330 333 334 336 337 341 343
239 252 254 264 268 264 261 260 251 243 248 260 273 272 276 280 280 278 272 267 270 276 273 268 257 252 254 251 253 256 263 271 280 291 300 308 315 321 326 330 333 335 338 340
243 276 291 282 270 266 268 263 257 255 254 257 268 275 283 283 283 276 281 276 270 273 276 266 257 255 252 248 250 253 260 268 276 285 293 300 307 313 318 322 326 329 331 334
255 283 304 287 290 291 282 263 251 257 258 258 259 268 282 283 280 282 280 276 274 276 272 266 257 254 249 245 247 252 258 267 275 282 290 295 301 307 312 316 318 321 324 326
264 271 285 292 302 275 302 282 283 279 272 262 263 277 283 284 283 281 278 273 272 270 260 259 254 252 249 247 248 253 259 268 275 281 287 292 297 302 306 309 311 314 316 317
254 265 284 284 299 292 278 306 312 267 302 285 267 283 296 301 294 285 276 271 268 262 254 256 255 256 256 254 254 257 264 270 275 281 286 290 294 298 301 303 305 307 309 309
251 258 267 289 293 285 296 299 308 307 281 319 312 303 308 309 304 305 279 274 271 259 251 255 258 261 262 261 260 262 267 271 277 281 285 288 291 294 296 299 300 302 302 304
257 261 254 266 282 283 280 254 283 294 298 306 313 310 303 295 297 299 289 280 276 261 257 260 262 264 266 265 264 266 269 273 278 281 283 286 289 291 292 295 296 298 298 299
250 252 263 262 274 278 249 270 276 292 288 293 304 302 298 296 295 293 288 282 275 263 262 266 266 266 268 267 267 269 272 276 278 280 282 284 286 288 289 290 292 293 293 295
269 263 275 261 271 281 274 274 284 291 290 289 293 292 295 294 290 289 286 281 277 269 270 271 269 270 270 269 270 273 277 279 278 279 281 283 285 285 286 287 289 290 290 292
270 268 275 282 280 281 285 281 280 284 285 287 288 289 290 289 285 285 282 277 274 271 271 272 272 272 274 275 275 275 277 278 279 280 281 282 282 283 284 285 286 287 288 289
281 273 273 276 282 284 288 290 288 288 291 290 288 287 287 285 282 283 282 277 274 273 272 271 272 275 277 278 278 278 277 277 278 279 279 281 281 281 282 283 284 285 286 287
270 273 273 279 284 286 289 292 290 291 292 291 290 289 286 284 282 281 279 277 275 273 272 273 275 276 277 278 279 279 279 278 278 278 278 279 280 281 282 283 284 284 284 286